{"data":{"norad_id":50808,"epoch":"2026-05-25T02:45:57.764160Z","epoch_age_seconds":59113,"freshness":"FRESH","line1":"1 50808U 22001F   26145.11525190 -.00001042  00000+0 -47423-4 0  9990","line2":"2 50808  53.2113 176.0325 0000955  78.1942 281.9157 15.08837998242089","mean_motion":15.08837998,"eccentricity":9.55e-5,"inclination_deg":53.2113,"raan_deg":176.0325,"arg_perigee_deg":78.1942,"mean_anomaly_deg":281.9157,"bstar":-4.7423e-5,"rev_number":24208,"period_min":95.437681308978,"perigee_km":539.08885012242,"apogee_km":540.4101664455,"semimajor_km":6917.886508284,"source":"CELESTRAK","updated_at":"2026-05-25T13:38:16.875027Z"}}